SCP
0 0 0 0 0 0 0 0 0 0 0 0 0 0 0 0 0 0 0 0 0 0 0 0 0 0 0 0 0 0 0 0 0 0 0 0 0 0 0 0 0 0 0 0 0 0 0 0 0 0 0 0 0 0
0 0 0 0 0 0 0 0 0 0 0 0 0 0 0 0 0 0 0 0 0 0 0 0 0 0 0 0 0 0 0 0 0 0 0 0 0 0 0 0 0 0 0 0 0 0 0 0 0 0 0 0 0 0
0 0 0 0 0 0 0 0 0 0 0 0 0 0 0 0 0 0 0 0 0 0 0 0 0 0 0 0 0 0 0 0 0 0 0 0 0 0 0 0 0 0 0 0 0 0 0 0 0 0 0 0 0 0
-0 -0 0 0 0 0 0 0 0 0 0 0 0 0 0 0 0 0 0 0 0 0 0 0 0 0 0 0 0 0 0 0 0 0 0 0 0 0 0 0 0 0 0 0 0 0 0 0 0 0 0 0 0 0
0 0 0 0 0 0 0 0 0 0 0 0 0 -0 -0 0 0 0 0 0 0 0 0 0 0 0 0 0 0 0 0 0 0 0 0 0 0 0 0 0 0 0 0 0 0 0 0 0 0 0 0 0 0 0
0 0 0 0 0 0 0 0 0 0 0 0 0 0 0 0 0 0 0 0 0 0 0 0 0 0 0 0 0 0 0 0 0 0 0 0 0 0 0 0 0 0 0 0 0 0 0 0 0 0 0 0 0 0
0 0 0 0 0 0 0 0 0 0 0 0 0 0 0 0 0 0 0 0 0 0 0 0 0 0 0 0 0 0 0 0 0 0 0 0 0 0 0 0 0 0 0 0 0 0 0 0 0 0 0 0 0 0
0 0 0 0 0 0 0 0 0 0 0 0 0 0 0 0 0 0 0 -0 0 0 0 0 0 0 0 0 0 0 0 0 0 0 0 0 0 0 0 0 0 0 0 0 0 0 0 0 0 0 0 0 0 0
0 0 0 -0 0 0 0 0 0 0 0 0 0 0 0 0 0 0 0 0 0 0 0 0 0 0 0 0 0 0 0 0 0 0 0 0 0 0 0 0 0 0 0 0 0 0 0 0 0 0 0 0 0 0
0 0 0 0 0 0 0 0 0 0 0 0 0 0 0 0 0 0 0 0 0 0 0 -0 0 0 0 0 0 0 0 0 0 0 0 0 0 0 0 0 0 0 0 0 0 0 0 0 0 0 0 0 0 0
-0 0 0 0 0 0 0 0 0 0 0 0 0 0 0 0 -0 0 0 0 0 0 0 -0 0 0 0 0 0 0 0 0 0 0 0 0 0 0 0 0 0 0 0 0 0 0 0 0 0 0 0 0 0 0
-0 -0 0 0 0 0 0 0 0 0 0 0 0 0 0 0 0 0 0 0 0 0 0 0 0 0 0 0 0 0 0 0 0 0 0 0 0 0 0 0 0 0 0 0 0 0 0 0 0 0 0 -0 -0 0
-0 -0 -0 0 0 0 0 0 0 0 0 0 0 0 0 0 0 0 0 0 0 0 0 0 0 0 0 0 0 0 0 0 0 0 0 0 0 0 0 0 0 0 0 0 0 0 0 0 0 0 0 0 0 0
0 0 -0 0 0 0 0 0 0 0 0 0 0 0 0 0 0 0 0 0 0 0 0 0 0 0 0 0 0 0 0 0 0 0 0 0 0 0 0 0 0 0 0 0 0 0 0 0 0 0 -0 0 0 0
-0 -0 0 0 0 0 0 0 0 0 0 0 0 0 0 0 0 0 0 0 0 0 0 0 0 0 0 0 0 0 0 0 0 0 0 0 0 0 0 0 0 0 0 0 0 0 0 0 0 0 0 0 0 0
-0 0 0 0 0 0 0 0 0 0 0 0 0 0 0 0 0 0 0 0 0 0 0 0 0 0 0 0 0 0 0 0 0 0 0 0 0 0 0 0 0 0 0 0 0 0 0 0 0 0 0 0 0 0
0 0 0 -0 0 0 0 0 0 0 0 0 0 0 0 0 0 0 0 0 0 0 0 0 0 0 0 0 0 0 0 0 0 0 0 0 0 0 0 0 0 0 0 0 0 0 0 0 0 0 0 0 0 0
0 0 0 0 0 0 0 0 0 0 0 0 0 0 0 0 0 0 0 0 0 0 0 0 0 0 0 0 0 0 0 0 0 0 0 0 0 0 0 0 0 0 0 0 0 0 0 0 0 0 0 0 0 0
0 0 0 0 0 0 0 0 0 0 0 0 0 0 0 0 0 0 0 0 0 0 0 0 0 0 0 0 0 0 0 0 0 0 0 0 0 0 0 0 0 0 0 0 0 0 0 0 0 0 0 0 0 0
0 0 0 0 0 0 0 0 0 0 0 0 0 0 0 0 0 0 0 0 0 0 0 0 0 -0 -0 -0 -0 -0 -0 -0 -0 -0 -0 -0 -0 -0 -0 -0 -0 0 0 0 0 0 0 0 0 0 0 0 0 0
0 0 0 0 0 0 0 0 0 0 0 0 0 0 0 0 0 0 0 0 0 -0 -0 -0 -0 -0 -0 -0 -0 -0 -0 -0 -0 -0 -0 -0 -0 -0 0 0 0 0 0 0 0 0 0 0 0 0 0 0 0 0
0 0 0 0 0 0 0 0 0 0 0 0 0 0 0 0 0 0 0 -0 -0 -0 -0 0 0 0 0 0 0 0 0 0 -0 -0 -0 -0 -0 -0 0 0 0 0 0 0 0 0 0 0 0 0 0 0 0 0
0 0 0 0 0 0 0 0 0 0 0 0 0 0 0 0 -0 -0 -0 -0 -0 -0 -0 0 0 -0 -0 -0 -0 -0 -0 0 -0 0 0 0 0 0 0 0 0 0 0 0 0 0 0 0 0 0 0 0 0 0
0 0 0 0 0 0 0 0 0 0 0 0 0 0 0 0 0 -0 -0 -0 -0 -0 0 -0 -0 -0 -0 -0 0 0 0 0 0 0 0 0 0 0 0 0 0 0 0 0 0 0 0 0 0 0 0 0 0 0
0 0 0 0 0 0 0 0 0 0 0 0 0 0 0 0 0 0 0 -0 0 0 0 0 0 0 0 0 0 0 -0 -0 -0 0 0 0 0 0 0 0 0 0 0 0 0 0 0 0 0 0 0 0 0 0
0 0 0 0 0 0 0 0 0 0 0 0 0 0 0 0 0 0 0 0 0 0 0 0 0 0 0 0 0 0 -0 -0 0 0 0 0 0 0 0 0 0 0 0 0 0 0 0 0 0 0 0 0 0 0
0 0 0 0 0 0 0 0 0 0 0 0 0 0 0 0 0 0 0 0 0 0 0 0 0 0 0 0 0 0 0 0 0 0 0 0 0 0 0 0 0 0 0 0 0 0 0 0 0 0 0 0 0 0
0 0 0 0 0 0 0 0 0 0 0 0 0 0 0 0 0 0 0 0 0 0 0 0 0 0 0 0 0 0 0 0 0 0 0 0 0 0 0 0 0 0 0 0 0 0 0 0 0 0 0 0 0 0
0 0 0 0 0 0 0 0 0 0 0 0 0 0 0 0 0 0 0 0 0 0 0 0 0 0 0 0 0 0 0 0 0 0 0 0 0 0 0 0 0 0 0 0 0 0 0 0 0 0 0 0 0 0
0 0 0 0 0 0 0 0 0 0 0 0 0 0 0 0 0 0 0 0 0 0 0 0 0 0 0 0 0 0 0 0 0 0 0 0 0 0 0 0 0 0 0 0 0 0 0 0 0 0 0 0 0 0
0 0 0 0 0 0 0 0 0 0 0 0 0 0 0 0 0 0 0 0 0 0 0 0 0 0 0 0 0 0 0 0 0 0 0 0 0 0 0 0 0 0 0 -0 0 0 0 0 0 0 -0 -0 -0 0
0 0 0 0 0 0 0 0 0 0 0 0 0 0 0 0 0 0 0 0 0 0 0 0 0 0 0 0 0 0 0 0 0 0 0 0 0 -0 0 0 -0 -0 -0 -0 -0 -0 0 0 0 -0 -0 -0 -0 -0
0 0 0 0 0 0 0 0 0 0 0 0 0 0 0 0 0 0 0 0 0 0 0 0 0 0 0 0 0 0 0 0 0 0 0 0 0 0 0 0 0 0 0 0 -0 -0 0 -0 -0 -0 -0 -0 -0 0
Wind_Speed_500mb
20 22 23 26 25 19 22 21 17 18 18 19 18 18 15 12 15 18 14 16 22 10 26 24 16 8 15 5 6 14 5 4 1 6 9 6 5 8 8 8 9 13 12 6 7 6 14 12 16 15 3 6 18 18
20 17 24 25 23 22 19 22 24 17 19 20 19 16 14 12 14 15 12 6 15 27 17 20 35 35 33 28 19 9 8 5 5 3 3 6 6 6 7 11 3 8 3 9 12 7 4 10 1 9 7 9 16 17
19 20 18 18 18 15 15 15 18 17 13 13 14 16 15 13 14 13 9 12 12 17 34 33 28 19 19 25 21 8 4 7 6 1 2 3 6 3 8 6 8 4 1 4 7 8 5 0 9 6 12 17 20 14
19 22 21 18 17 17 17 19 19 16 12 13 13 14 13 12 13 14 14 14 15 9 8 9 6 13 23 21 25 27 24 16 4 0 2 3 4 4 5 7 3 4 11 7 4 9 4 6 8 14 20 23 20 17
19 19 19 18 17 16 15 18 18 15 13 15 13 12 12 12 15 15 18 13 13 10 7 18 32 10 19 23 20 15 12 9 4 2 1 3 5 6 4 4 6 12 9 8 6 4 2 8 16 19 20 20 18 14
19 18 19 19 19 22 15 15 14 15 13 17 18 11 10 10 9 7 7 18 8 10 7 6 11 4 20 24 17 11 6 6 1 3 4 4 4 1 6 6 4 13 16 11 2 8 7 5 17 22 19 18 18 16
24 21 20 20 17 14 11 10 15 13 13 17 16 10 12 13 8 9 5 7 11 4 5 9 11 3 19 23 14 7 4 4 4 4 3 2 3 4 3 6 7 13 9 13 11 11 6 7 13 23 22 20 19 19
23 21 20 18 16 16 16 13 12 18 12 21 20 15 13 14 11 16 11 0 4 6 3 1 7 6 20 8 8 9 6 4 6 4 2 2 5 1 5 3 11 2 8 12 11 13 7 8 13 31 25 20 22 22
17 22 20 16 17 19 14 15 18 19 16 14 14 15 15 11 10 10 13 9 9 7 4 6 5 5 17 7 8 7 7 4 3 2 3 3 2 6 2 16 16 9 7 6 4 10 11 15 17 23 23 26 27 27
19 18 18 14 15 18 12 20 11 13 19 7 9 8 9 9 14 15 12 5 6 8 10 5 6 7 9 4 5 7 4 5 5 2 7 2 4 6 5 11 17 17 19 14 19 15 16 17 25 25 21 22 22 26
20 15 19 15 14 15 8 3 12 11 4 8 8 4 8 13 8 8 9 8 8 5 9 7 21 8 11 8 7 4 5 6 8 7 7 7 9 7 7 12 13 13 22 22 17 20 24 28 22 23 22 23 21 20
21 17 17 17 13 10 5 7 7 5 5 7 8 12 10 8 5 5 4 3 7 5 10 8 9 9 4 6 4 6 4 4 6 14 6 9 7 8 7 11 17 9 15 28 22 19 18 33 33 25 23 21 16 23
18 17 19 18 14 13 7 13 6 6 7 12 4 4 4 3 3 6 8 6 4 2 5 5 5 5 5 9 5 5 6 4 12 6 4 4 9 8 8 9 14 17 7 18 24 20 17 17 18 18 23 16 10 18
18 17 20 21 12 8 7 8 12 9 3 4 1 2 5 5 5 3 0 2 2 5 4 9 5 2 1 2 2 4 5 7 6 7 7 8 12 2 7 12 15 20 21 12 13 19 20 17 15 17 23 24 17 19
17 18 21 24 17 9 14 7 5 4 5 3 1 2 3 2 6 7 7 6 3 3 9 9 7 5 5 4 4 4 6 6 6 5 8 27 22 9 15 20 20 20 19 20 16 9 13 15 5 6 18 27 25 23
23 21 18 27 24 14 12 9 7 1 2 1 3 3 4 4 5 1 5 5 9 5 13 12 3 3 2 2 4 4 5 6 4 4 23 24 13 12 18 22 23 21 20 18 18 9 7 10 8 6 19 24 27 31
25 16 24 26 22 13 8 9 6 2 0 1 1 3 7 7 10 8 5 5 16 4 3 5 5 4 4 4 5 1 1 4 15 20 22 10 3 10 17 21 22 21 19 15 15 11 6 9 11 13 20 39 39 40
16 23 25 22 16 10 5 2 1 2 1 2 1 5 6 9 11 5 1 6 5 4 3 3 8 4 4 5 6 6 10 13 9 6 4 8 13 19 21 22 21 16 14 14 10 12 8 5 9 17 25 46 41 51
27 27 25 20 10 3 2 3 4 4 3 5 9 13 9 6 9 4 8 9 11 10 9 4 3 3 3 3 5 7 6 5 9 18 28 31 31 29 26 24 20 16 12 8 4 1 2 8 5 7 19 39 48 50
27 25 22 13 8 3 3 4 5 4 4 8 10 14 6 5 8 6 7 4 3 2 2 1 1 3 2 7 18 26 28 29 32 35 39 31 33 32 27 23 21 17 14 11 8 8 8 9 13 11 15 31 46 61
22 21 15 9 8 8 4 4 4 4 6 5 12 9 5 4 3 4 2 2 1 2 2 2 8 17 35 40 41 43 49 50 51 49 47 39 29 25 24 25 23 22 22 17 15 15 16 18 14 19 27 38 58 62
20 13 3 8 6 5 4 8 5 9 5 9 8 9 3 2 3 4 4 1 2 2 3 21 33 41 47 50 55 54 56 57 56 58 56 52 51 42 36 32 26 26 28 24 21 21 27 20 24 31 31 48 63 61
11 3 6 10 5 6 3 10 6 8 5 11 7 1 3 3 5 8 1 1 2 5 36 41 43 49 55 55 54 52 49 53 59 62 59 58 55 50 45 40 36 32 28 31 28 26 32 27 40 47 52 58 58 57
5 4 5 7 9 5 6 6 5 6 4 4 5 4 4 6 10 5 3 4 7 39 41 50 52 52 43 37 37 34 24 29 35 45 53 54 59 54 47 44 40 37 34 30 30 35 38 38 41 45 39 66 65 59
2 9 6 7 8 6 6 5 7 5 4 5 6 3 6 8 4 5 4 9 36 53 57 54 56 51 48 49 37 18 17 15 25 40 39 42 51 49 43 44 39 33 39 37 40 43 38 40 49 49 50 69 64 59
9 9 6 11 7 6 6 6 7 6 5 5 5 8 5 2 4 5 5 28 51 58 53 56 57 49 42 24 25 34 10 9 10 22 32 46 47 53 51 49 40 40 44 45 44 44 45 53 54 50 62 61 57 56
7 8 6 7 5 5 4 5 5 4 6 8 7 10 6 8 7 7 30 47 53 42 38 39 40 33 39 39 33 36 25 24 30 34 39 41 40 40 44 47 44 47 52 45 46 44 43 65 66 59 65 55 50 46
7 5 3 6 7 8 6 6 7 9 7 12 6 11 6 10 6 20 39 43 44 41 39 44 53 47 41 47 51 44 38 43 44 53 57 50 41 39 40 40 40 44 47 45 45 42 53 58 62 67 55 53 50 46
5 5 5 8 4 7 11 12 11 9 13 7 4 4 5 10 26 34 52 56 55 57 61 67 67 73 58 63 78 86 87 71 71 67 59 59 62 45 44 52 54 50 48 48 33 48 53 60 57 54 52 50 46 43
3 6 5 6 8 10 13 11 8 14 20 20 14 9 10 19 42 50 61 61 66 72 73 77 88 91 92 90 76 92 104 96 87 88 87 82 82 77 68 67 61 74 80 82 78 66 57 58 55 52 50 48 44 42
9 6 6 11 7 7 13 14 24 28 31 29 22 17 12 17 25 51 54 55 60 64 69 83 85 88 87 88 91 82 67 69 71 71 76 75 75 72 74 81 84 84 74 66 67 67 64 61 57 54 48 44 41 39
5 3 6 5 4 3 7 9 12 14 17 18 15 10 11 14 17 27 45 45 47 55 57 60 66 68 66 68 71 77 81 74 60 48 47 52 61 64 62 59 57 58 60 63 63 60 54 52 51 46 44 40 36 31
17 18 17 6 2 2 2 4 4 4 8 6 10 14 13 8 10 16 22 31 37 41 43 44 44 45 45 48 50 53 57 58 59 60 58 52 45 39 40 42 47 47 45 46 46 46 44 41 40 38 35 34 33 31
Wind_Direction_500mb
280 282 284 280 281 280 275 286 298 274 266 262 262 261 272 272 257 272 291 264 227 254 270 277 282 333 342 1 331 347 277 207 125 162 183 149 185 170 143 143 174 179 169 148 113 172 240 157 142 206 178 161 180 183
284 288 286 280 275 277 284 275 284 285 265 268 263 258 275 274 258 268 288 275 222 235 263 267 276 270 273 274 281 296 302 297 347 125 170 133 124 203 145 164 102 180 226 182 204 186 96 193 164 222 183 165 172 175
279 275 274 298 297 277 291 274 269 281 262 253 253 244 263 263 268 278 268 232 239 264 285 273 269 263 251 251 240 255 302 323 322 293 147 119 140 162 154 154 123 121 137 143 177 174 223 193 222 207 179 165 163 173
263 260 280 289 290 293 289 292 268 274 254 241 244 242 251 268 274 265 247 224 224 264 280 296 315 300 238 230 227 233 265 294 273 4 32 87 129 228 147 104 151 79 150 150 265 255 261 205 179 157 149 146 143 136
267 264 274 281 283 281 293 288 273 250 256 242 244 247 248 265 274 269 236 232 234 236 297 293 307 292 209 188 192 223 233 221 231 247 111 111 112 142 72 126 166 186 156 185 213 182 132 143 155 153 142 139 138 135
265 264 272 281 280 273 279 293 280 256 228 243 253 222 250 267 283 258 201 223 200 228 279 291 332 277 171 169 182 196 208 203 157 94 77 96 105 287 144 176 164 181 183 173 150 170 170 140 165 149 144 144 145 140
259 263 271 276 275 282 256 285 291 254 253 237 228 220 238 248 253 222 234 163 188 237 253 291 320 206 165 157 156 146 99 103 115 102 73 82 101 29 116 155 165 192 189 194 169 144 131 184 177 156 157 155 154 149
253 256 262 266 262 265 261 238 266 265 258 223 215 229 249 267 261 234 220 262 139 200 187 274 294 246 168 151 134 148 134 102 57 87 87 88 117 35 190 13 9 82 172 169 173 190 201 193 177 172 180 186 169 165
267 248 249 255 251 281 263 260 262 261 267 198 218 230 249 245 203 189 165 239 235 208 217 156 281 134 172 130 126 134 156 138 104 114 128 193 164 212 346 313 317 302 240 163 192 188 178 186 172 181 190 188 187 182
260 246 237 242 250 288 249 286 272 201 151 206 210 201 204 165 145 162 195 207 209 206 223 228 183 252 176 168 122 129 85 118 165 125 137 203 143 122 10 312 297 281 243 244 230 225 215 212 208 207 203 203 200 196
233 239 222 226 242 282 237 337 104 95 169 188 194 196 153 161 146 201 201 205 172 225 217 197 207 260 184 201 138 187 144 156 183 149 201 175 172 131 7 0 342 274 230 221 227 225 233 239 232 218 216 218 203 193
228 226 208 209 238 268 193 100 90 174 217 193 170 152 167 183 174 205 203 141 209 217 188 205 205 213 166 147 141 176 145 184 166 146 189 183 122 78 34 12 17 359 214 208 222 231 230 221 233 248 252 236 249 210
218 209 196 197 222 191 176 135 180 160 151 149 156 192 180 144 183 219 188 182 217 199 188 190 172 179 153 171 162 170 172 127 132 192 179 102 98 70 20 19 42 45 81 192 214 224 218 221 231 242 243 230 221 192
201 195 185 183 197 141 184 166 111 94 85 138 106 205 225 183 232 218 205 290 280 278 246 180 95 59 352 105 46 158 85 157 153 180 189 132 140 339 17 36 47 41 58 90 203 222 232 247 258 245 230 212 221 200
171 169 170 169 164 179 122 124 147 72 50 95 203 209 184 326 277 289 278 262 198 44 143 110 52 1 33 104 35 123 160 184 208 189 141 153 151 109 51 41 33 33 38 58 84 136 189 201 238 270 204 196 202 196
150 151 158 161 162 164 168 179 146 240 234 233 242 248 318 236 289 172 175 127 161 86 124 106 167 275 102 88 168 193 209 202 115 117 139 144 112 58 30 24 20 18 21 33 46 67 144 161 143 151 163 164 161 169
157 158 155 160 170 168 159 161 199 251 181 301 31 334 292 302 342 359 96 122 145 149 172 180 142 97 107 185 187 207 8 72 124 125 138 131 61 358 349 352 356 6 10 17 28 33 121 154 138 115 158 154 152 158
147 148 146 152 149 150 133 54 34 40 79 243 307 15 309 274 280 296 337 144 199 177 127 88 129 136 156 158 148 131 129 130 119 153 229 270 290 301 310 318 327 337 340 359 14 34 60 110 147 167 182 179 171 164
141 137 139 139 127 80 60 35 29 32 2 343 342 357 351 359 52 82 103 111 92 92 106 106 143 168 164 185 135 145 163 251 272 279 282 282 283 292 292 291 293 299 299 310 322 24 96 146 157 159 169 172 172 171
137 141 137 105 47 51 54 34 25 11 6 336 347 347 1 30 15 125 112 85 59 47 97 147 175 167 197 276 290 286 280 279 278 277 275 275 277 281 270 282 276 273 257 246 234 208 187 181 186 177 171 178 171 160
136 143 138 44 36 45 61 27 18 353 338 344 350 5 322 2 113 155 194 218 205 72 27 318 290 289 296 290 288 287 285 280 271 262 263 263 256 252 251 261 249 245 236 221 211 191 178 194 208 182 186 179 172 162
141 142 75 12 30 34 61 16 321 321 325 318 350 353 6 53 50 24 324 309 62 119 356 319 305 304 297 289 288 284 280 274 265 260 258 257 250 243 238 239 229 228 224 214 203 188 179 185 192 188 182 173 163 150
117 46 29 15 17 34 38 5 7 359 342 343 349 15 40 25 356 337 357 340 282 273 321 313 313 314 304 298 291 280 268 260 255 252 248 241 241 239 237 235 223 214 214 208 198 189 172 180 171 164 152 142 149 155
44 58 31 21 23 6 357 12 0 350 338 3 350 352 14 346 345 27 324 310 296 325 320 322 331 325 322 323 314 311 288 264 249 242 238 233 226 221 221 219 218 215 201 193 193 181 176 185 160 177 180 160 166 162
53 20 30 10 17 7 24 14 353 358 9 357 343 355 7 354 19 21 333 309 319 327 332 338 341 342 331 336 348 356 328 276 244 234 226 216 210 204 198 199 206 197 183 184 176 172 180 186 170 176 159 159 160 160
65 11 29 16 8 27 358 5 7 349 322 333 357 333 337 354 6 342 315 316 327 335 341 343 348 354 2 19 13 21 39 68 129 155 170 182 180 180 178 181 183 183 177 171 171 175 181 180 166 156 166 163 160 156
55 48 15 20 352 332 352 337 295 309 6 13 357 350 5 18 354 326 319 334 339 357 12 18 23 25 45 60 76 78 98 97 107 121 128 138 150 167 173 171 171 171 163 164 172 176 173 162 163 164 160 161 163 161
48 38 67 26 54 35 3 1 18 16 4 347 352 27 32 5 332 319 332 5 25 37 51 67 72 68 62 55 57 70 94 106 94 107 110 114 125 128 134 145 154 158 159 167 165 165 164 163 158 158 159 156 153 155
68 108 22 25 33 46 39 27 6 356 343 354 48 42 26 5 360 4 24 35 49 72 80 79 73 72 72 68 65 71 80 97 111 107 96 96 112 137 142 147 150 155 159 158 157 160 164 149 150 151 148 145 144 147
62 19 356 31 40 44 13 32 47 55 70 81 91 87 48 36 36 44 51 69 71 69 68 67 75 74 67 62 69 77 81 88 85 92 89 86 90 99 122 130 125 122 119 122 121 129 141 141 141 140 139 141 144 150
130 70 44 63 73 101 71 68 66 70 75 76 84 70 40 12 33 45 48 58 64 67 66 67 66 67 71 68 67 70 90 95 98 101 106 107 105 107 113 109 113 118 123 127 129 131 133 133 131 129 128 129 134 138
86 86 112 96 75 99 33 56 60 69 63 60 55 50 29 20 33 31 42 48 58 60 60 60 64 63 65 66 66 70 77 78 82 96 96 100 115 115 114 119 124 125 128 128 128 125 124 126 126 124 122 122 124 127
101 105 111 95 47 345 41 53 58 78 52 52 39 39 44 46 48 28 35 41 51 54 55 57 59 62 66 69 68 69 70 73 76 78 83 90 100 110 117 130 136 135 137 138 140 143 143 139 137 137 133 132 129 124
Wind_Speed_850mb
20 22 23 26 25 19 22 21 17 18 18 19 18 18 15 12 15 18 14 16 22 10 26 24 16 8 15 5 6 14 5 4 1 6 9 6 5 8 8 8 9 13 12 6 7 6 14 12 16 15 3 6 18 18
20 17 24 25 23 22 19 22 24 17 19 20 19 16 14 12 14 15 12 6 15 27 17 20 35 35 33 28 19 9 8 5 5 3 3 6 6 6 7 11 3 8 3 9 12 7 4 10 1 9 7 9 16 17
19 20 18 18 18 15 15 15 18 17 13 13 14 16 15 13 14 13 9 12 12 17 34 33 28 19 19 25 21 8 4 7 6 1 2 3 6 3 8 6 8 4 1 4 7 8 5 0 9 6 12 17 20 14
19 22 21 18 17 17 17 19 19 16 12 13 13 14 13 12 13 14 14 14 15 9 8 9 6 13 23 21 25 27 24 16 4 0 2 3 4 4 5 7 3 4 11 7 4 9 4 6 8 14 20 23 20 17
19 19 19 18 17 16 15 18 18 15 13 15 13 12 12 12 15 15 18 13 13 10 7 18 32 10 19 23 20 15 12 9 4 2 1 3 5 6 4 4 6 12 9 8 6 4 2 8 16 19 20 20 18 14
19 18 19 19 19 22 15 15 14 15 13 17 18 11 10 10 9 7 7 18 8 10 7 6 11 4 20 24 17 11 6 6 1 3 4 4 4 1 6 6 4 13 16 11 2 8 7 5 17 22 19 18 18 16
24 21 20 20 17 14 11 10 15 13 13 17 16 10 12 13 8 9 5 7 11 4 5 9 11 3 19 23 14 7 4 4 4 4 3 2 3 4 3 6 7 13 9 13 11 11 6 7 13 23 22 20 19 19
23 21 20 18 16 16 16 13 12 18 12 21 20 15 13 14 11 16 11 0 4 6 3 1 7 6 20 8 8 9 6 4 6 4 2 2 5 1 5 3 11 2 8 12 11 13 7 8 13 31 25 20 22 22
17 22 20 16 17 19 14 15 18 19 16 14 14 15 15 11 10 10 13 9 9 7 4 6 5 5 17 7 8 7 7 4 3 2 3 3 2 6 2 16 16 9 7 6 4 10 11 15 17 23 23 26 27 27
19 18 18 14 15 18 12 20 11 13 19 7 9 8 9 9 14 15 12 5 6 8 10 5 6 7 9 4 5 7 4 5 5 2 7 2 4 6 5 11 17 17 19 14 19 15 16 17 25 25 21 22 22 26
20 15 19 15 14 15 8 3 12 11 4 8 8 4 8 13 8 8 9 8 8 5 9 7 21 8 11 8 7 4 5 6 8 7 7 7 9 7 7 12 13 13 22 22 17 20 24 28 22 23 22 23 21 20
21 17 17 17 13 10 5 7 7 5 5 7 8 12 10 8 5 5 4 3 7 5 10 8 9 9 4 6 4 6 4 4 6 14 6 9 7 8 7 11 17 9 15 28 22 19 18 33 33 25 23 21 16 23
18 17 19 18 14 13 7 13 6 6 7 12 4 4 4 3 3 6 8 6 4 2 5 5 5 5 5 9 5 5 6 4 12 6 4 4 9 8 8 9 14 17 7 18 24 20 17 17 18 18 23 16 10 18
18 17 20 21 12 8 7 8 12 9 3 4 1 2 5 5 5 3 0 2 2 5 4 9 5 2 1 2 2 4 5 7 6 7 7 8 12 2 7 12 15 20 21 12 13 19 20 17 15 17 23 24 17 19
17 18 21 24 17 9 14 7 5 4 5 3 1 2 3 2 6 7 7 6 3 3 9 9 7 5 5 4 4 4 6 6 6 5 8 27 22 9 15 20 20 20 19 20 16 9 13 15 5 6 18 27 25 23
23 21 18 27 24 14 12 9 7 1 2 1 3 3 4 4 5 1 5 5 9 5 13 12 3 3 2 2 4 4 5 6 4 4 23 24 13 12 18 22 23 21 20 18 18 9 7 10 8 6 19 24 27 31
25 16 24 26 22 13 8 9 6 2 0 1 1 3 7 7 10 8 5 5 16 4 3 5 5 4 4 4 5 1 1 4 15 20 22 10 3 10 17 21 22 21 19 15 15 11 6 9 11 13 20 39 39 40
16 23 25 22 16 10 5 2 1 2 1 2 1 5 6 9 11 5 1 6 5 4 3 3 8 4 4 5 6 6 10 13 9 6 4 8 13 19 21 22 21 16 14 14 10 12 8 5 9 17 25 46 41 51
27 27 25 20 10 3 2 3 4 4 3 5 9 13 9 6 9 4 8 9 11 10 9 4 3 3 3 3 5 7 6 5 9 18 28 31 31 29 26 24 20 16 12 8 4 1 2 8 5 7 19 39 48 50
27 25 22 13 8 3 3 4 5 4 4 8 10 14 6 5 8 6 7 4 3 2 2 1 1 3 2 7 18 26 28 29 32 35 39 31 33 32 27 23 21 17 14 11 8 8 8 9 13 11 15 31 46 61
22 21 15 9 8 8 4 4 4 4 6 5 12 9 5 4 3 4 2 2 1 2 2 2 8 17 35 40 41 43 49 50 51 49 47 39 29 25 24 25 23 22 22 17 15 15 16 18 14 19 27 38 58 62
20 13 3 8 6 5 4 8 5 9 5 9 8 9 3 2 3 4 4 1 2 2 3 21 33 41 47 50 55 54 56 57 56 58 56 52 51 42 36 32 26 26 28 24 21 21 27 20 24 31 31 48 63 61
11 3 6 10 5 6 3 10 6 8 5 11 7 1 3 3 5 8 1 1 2 5 36 41 43 49 55 55 54 52 49 53 59 62 59 58 55 50 45 40 36 32 28 31 28 26 32 27 40 47 52 58 58 57
5 4 5 7 9 5 6 6 5 6 4 4 5 4 4 6 10 5 3 4 7 39 41 50 52 52 43 37 37 34 24 29 35 45 53 54 59 54 47 44 40 37 34 30 30 35 38 38 41 45 39 66 65 59
2 9 6 7 8 6 6 5 7 5 4 5 6 3 6 8 4 5 4 9 36 53 57 54 56 51 48 49 37 18 17 15 25 40 39 42 51 49 43 44 39 33 39 37 40 43 38 40 49 49 50 69 64 59
9 9 6 11 7 6 6 6 7 6 5 5 5 8 5 2 4 5 5 28 51 58 53 56 57 49 42 24 25 34 10 9 10 22 32 46 47 53 51 49 40 40 44 45 44 44 45 53 54 50 62 61 57 56
7 8 6 7 5 5 4 5 5 4 6 8 7 10 6 8 7 7 30 47 53 42 38 39 40 33 39 39 33 36 25 24 30 34 39 41 40 40 44 47 44 47 52 45 46 44 43 65 66 59 65 55 50 46
7 5 3 6 7 8 6 6 7 9 7 12 6 11 6 10 6 20 39 43 44 41 39 44 53 47 41 47 51 44 38 43 44 53 57 50 41 39 40 40 40 44 47 45 45 42 53 58 62 67 55 53 50 46
5 5 5 8 4 7 11 12 11 9 13 7 4 4 5 10 26 34 52 56 55 57 61 67 67 73 58 63 78 86 87 71 71 67 59 59 62 45 44 52 54 50 48 48 33 48 53 60 57 54 52 50 46 43
3 6 5 6 8 10 13 11 8 14 20 20 14 9 10 19 42 50 61 61 66 72 73 77 88 91 92 90 76 92 104 96 87 88 87 82 82 77 68 67 61 74 80 82 78 66 57 58 55 52 50 48 44 42
9 6 6 11 7 7 13 14 24 28 31 29 22 17 12 17 25 51 54 55 60 64 69 83 85 88 87 88 91 82 67 69 71 71 76 75 75 72 74 81 84 84 74 66 67 67 64 61 57 54 48 44 41 39
5 3 6 5 4 3 7 9 12 14 17 18 15 10 11 14 17 27 45 45 47 55 57 60 66 68 66 68 71 77 81 74 60 48 47 52 61 64 62 59 57 58 60 63 63 60 54 52 51 46 44 40 36 31
17 18 17 6 2 2 2 4 4 4 8 6 10 14 13 8 10 16 22 31 37 41 43 44 44 45 45 48 50 53 57 58 59 60 58 52 45 39 40 42 47 47 45 46 46 46 44 41 40 38 35 34 33 31
Wind_Direction_850mb
280 282 284 280 281 280 275 286 298 274 266 262 262 261 272 272 257 272 291 264 227 254 270 277 282 333 342 1 331 347 277 207 125 162 183 149 185 170 143 143 174 179 169 148 113 172 240 157 142 206 178 161 180 183
284 288 286 280 275 277 284 275 284 285 265 268 263 258 275 274 258 268 288 275 222 235 263 267 276 270 273 274 281 296 302 297 347 125 170 133 124 203 145 164 102 180 226 182 204 186 96 193 164 222 183 165 172 175
279 275 274 298 297 277 291 274 269 281 262 253 253 244 263 263 268 278 268 232 239 264 285 273 269 263 251 251 240 255 302 323 322 293 147 119 140 162 154 154 123 121 137 143 177 174 223 193 222 207 179 165 163 173
263 260 280 289 290 293 289 292 268 274 254 241 244 242 251 268 274 265 247 224 224 264 280 296 315 300 238 230 227 233 265 294 273 4 32 87 129 228 147 104 151 79 150 150 265 255 261 205 179 157 149 146 143 136
267 264 274 281 283 281 293 288 273 250 256 242 244 247 248 265 274 269 236 232 234 236 297 293 307 292 209 188 192 223 233 221 231 247 111 111 112 142 72 126 166 186 156 185 213 182 132 143 155 153 142 139 138 135
265 264 272 281 280 273 279 293 280 256 228 243 253 222 250 267 283 258 201 223 200 228 279 291 332 277 171 169 182 196 208 203 157 94 77 96 105 287 144 176 164 181 183 173 150 170 170 140 165 149 144 144 145 140
259 263 271 276 275 282 256 285 291 254 253 237 228 220 238 248 253 222 234 163 188 237 253 291 320 206 165 157 156 146 99 103 115 102 73 82 101 29 116 155 165 192 189 194 169 144 131 184 177 156 157 155 154 149
253 256 262 266 262 265 261 238 266 265 258 223 215 229 249 267 261 234 220 262 139 200 187 274 294 246 168 151 134 148 134 102 57 87 87 88 117 35 190 13 9 82 172 169 173 190 201 193 177 172 180 186 169 165
267 248 249 255 251 281 263 260 262 261 267 198 218 230 249 245 203 189 165 239 235 208 217 156 281 134 172 130 126 134 156 138 104 114 128 193 164 212 346 313 317 302 240 163 192 188 178 186 172 181 190 188 187 182
260 246 237 242 250 288 249 286 272 201 151 206 210 201 204 165 145 162 195 207 209 206 223 228 183 252 176 168 122 129 85 118 165 125 137 203 143 122 10 312 297 281 243 244 230 225 215 212 208 207 203 203 200 196
233 239 222 226 242 282 237 337 104 95 169 188 194 196 153 161 146 201 201 205 172 225 217 197 207 260 184 201 138 187 144 156 183 149 201 175 172 131 7 0 342 274 230 221 227 225 233 239 232 218 216 218 203 193
228 226 208 209 238 268 193 100 90 174 217 193 170 152 167 183 174 205 203 141 209 217 188 205 205 213 166 147 141 176 145 184 166 146 189 183 122 78 34 12 17 359 214 208 222 231 230 221 233 248 252 236 249 210
218 209 196 197 222 191 176 135 180 160 151 149 156 192 180 144 183 219 188 182 217 199 188 190 172 179 153 171 162 170 172 127 132 192 179 102 98 70 20 19 42 45 81 192 214 224 218 221 231 242 243 230 221 192
201 195 185 183 197 141 184 166 111 94 85 138 106 205 225 183 232 218 205 290 280 278 246 180 95 59 352 105 46 158 85 157 153 180 189 132 140 339 17 36 47 41 58 90 203 222 232 247 258 245 230 212 221 200
171 169 170 169 164 179 122 124 147 72 50 95 203 209 184 326 277 289 278 262 198 44 143 110 52 1 33 104 35 123 160 184 208 189 141 153 151 109 51 41 33 33 38 58 84 136 189 201 238 270 204 196 202 196
150 151 158 161 162 164 168 179 146 240 234 233 242 248 318 236 289 172 175 127 161 86 124 106 167 275 102 88 168 193 209 202 115 117 139 144 112 58 30 24 20 18 21 33 46 67 144 161 143 151 163 164 161 169
157 158 155 160 170 168 159 161 199 251 181 301 31 334 292 302 342 359 96 122 145 149 172 180 142 97 107 185 187 207 8 72 124 125 138 131 61 358 349 352 356 6 10 17 28 33 121 154 138 115 158 154 152 158
147 148 146 152 149 150 133 54 34 40 79 243 307 15 309 274 280 296 337 144 199 177 127 88 129 136 156 158 148 131 129 130 119 153 229 270 290 301 310 318 327 337 340 359 14 34 60 110 147 167 182 179 171 164
141 137 139 139 127 80 60 35 29 32 2 343 342 357 351 359 52 82 103 111 92 92 106 106 143 168 164 185 135 145 163 251 272 279 282 282 283 292 292 291 293 299 299 310 322 24 96 146 157 159 169 172 172 171
137 141 137 105 47 51 54 34 25 11 6 336 347 347 1 30 15 125 112 85 59 47 97 147 175 167 197 276 290 286 280 279 278 277 275 275 277 281 270 282 276 273 257 246 234 208 187 181 186 177 171 178 171 160
136 143 138 44 36 45 61 27 18 353 338 344 350 5 322 2 113 155 194 218 205 72 27 318 290 289 296 290 288 287 285 280 271 262 263 263 256 252 251 261 249 245 236 221 211 191 178 194 208 182 186 179 172 162
141 142 75 12 30 34 61 16 321 321 325 318 350 353 6 53 50 24 324 309 62 119 356 319 305 304 297 289 288 284 280 274 265 260 258 257 250 243 238 239 229 228 224 214 203 188 179 185 192 188 182 173 163 150
117 46 29 15 17 34 38 5 7 359 342 343 349 15 40 25 356 337 357 340 282 273 321 313 313 314 304 298 291 280 268 260 255 252 248 241 241 239 237 235 223 214 214 208 198 189 172 180 171 164 152 142 149 155
44 58 31 21 23 6 357 12 0 350 338 3 350 352 14 346 345 27 324 310 296 325 320 322 331 325 322 323 314 311 288 264 249 242 238 233 226 221 221 219 218 215 201 193 193 181 176 185 160 177 180 160 166 162
53 20 30 10 17 7 24 14 353 358 9 357 343 355 7 354 19 21 333 309 319 327 332 338 341 342 331 336 348 356 328 276 244 234 226 216 210 204 198 199 206 197 183 184 176 172 180 186 170 176 159 159 160 160
65 11 29 16 8 27 358 5 7 349 322 333 357 333 337 354 6 342 315 316 327 335 341 343 348 354 2 19 13 21 39 68 129 155 170 182 180 180 178 181 183 183 177 171 171 175 181 180 166 156 166 163 160 156
55 48 15 20 352 332 352 337 295 309 6 13 357 350 5 18 354 326 319 334 339 357 12 18 23 25 45 60 76 78 98 97 107 121 128 138 150 167 173 171 171 171 163 164 172 176 173 162 163 164 160 161 163 161
48 38 67 26 54 35 3 1 18 16 4 347 352 27 32 5 332 319 332 5 25 37 51 67 72 68 62 55 57 70 94 106 94 107 110 114 125 128 134 145 154 158 159 167 165 165 164 163 158 158 159 156 153 155
68 108 22 25 33 46 39 27 6 356 343 354 48 42 26 5 360 4 24 35 49 72 80 79 73 72 72 68 65 71 80 97 111 107 96 96 112 137 142 147 150 155 159 158 157 160 164 149 150 151 148 145 144 147
62 19 356 31 40 44 13 32 47 55 70 81 91 87 48 36 36 44 51 69 71 69 68 67 75 74 67 62 69 77 81 88 85 92 89 86 90 99 122 130 125 122 119 122 121 129 141 141 141 140 139 141 144 150
130 70 44 63 73 101 71 68 66 70 75 76 84 70 40 12 33 45 48 58 64 67 66 67 66 67 71 68 67 70 90 95 98 101 106 107 105 107 113 109 113 118 123 127 129 131 133 133 131 129 128 129 134 138
86 86 112 96 75 99 33 56 60 69 63 60 55 50 29 20 33 31 42 48 58 60 60 60 64 63 65 66 66 70 77 78 82 96 96 100 115 115 114 119 124 125 128 128 128 125 124 126 126 124 122 122 124 127
101 105 111 95 47 345 41 53 58 78 52 52 39 39 44 46 48 28 35 41 51 54 55 57 59 62 66 69 68 69 70 73 76 78 83 90 100 110 117 130 136 135 137 138 140 143 143 139 137 137 133 132 129 124